Location: *
(43.9900°N, 3.4811°E)
Time: 08:39:36
(UTC+00:00)

Aureole 1 Rocket - Pass Details

Date: 25 August 2019
Orbit: 379 x 1383 km, 73.9° (Epoch: 17 October)

Event Time Altitude Azimuth Distance (km) Brightness Sun altitude
Rises 23:06:56 0° 338° (NNW) 4,275 8.4 -34.6°
Reaches altitude 10° 23:09:59 10° 338° (NNW) 3,199 7.5 -34.7°
Enters shadow 23:16:20 62° 331° (NNW) 1,195 4.5 -34.9°
